Regional Weather Roundup
Issued by NWS

Home | Current Version | Previous Version | Text Only | Print | Product List | Glossary Off
Versions: 1 2 3 4 5 6 7 8 9 10 11 12 13 14 15 16 17 18 19 20 21 22 23 24 25 26 27 28 29 30 31 32 33 34 35 36 37 38 39 40 41 42 43 44 45 46 47 48 49 50

000
ASUS43 KDMX 031907
RWRIA

WEATHER ROUNDUP FOR IOWA
NATIONAL WEATHER SERVICE DES MOINES IA
200 PM CDT MON AUG 03 2015

NOTE: "FAIR" INDICATES FEW OR NO CLOUDS BELOW 12,000 FEET WITH NO
SIGNIFICANT WEATHER AND/OR OBSTRUCTIONS TO VISIBILITY.

* - THESE STATIONS ARE NOT NWS STATIONS...THUS NOT UNDER NWS
QUALITY CONTROL.  THEY ALSO DO NOT REPORT WEATHER SUCH
AS PRECIPITATION OR FOG.

IAZ001>003-012>014-020>022-031>034-043>046-032000-
   NORTHWEST IOWA

CITY           SKY/WX    TMP DP  RH WIND       PRES   REMARKS
CARROLL *      SUNNY     77  57  50 VRB5      29.98R
CHEROKEE *     SUNNY     77  59  53 NW7       29.99S
DENISON *      SUNNY     77  59  53 CALM      29.96S
LE MARS *      MOSUNNY   79  59  50 VRB7      30.00S HX  80
ORANGE CITY *  SUNNY     75  55  50 N6        30.00S
SHELDON *      SUNNY     77  57  50 N6        29.99S
SIOUX CITY     SUNNY     80  60  50 VRB3      29.99R HX  81
SPENCER        SUNNY     80  51  36 NW10G18   29.98F HX  80
STORM LAKE *   SUNNY     75  55  50 CALM      30.00S
$$

IAZ055>058-069>071-079>083-090>094-032000-
   SOUTHWEST IOWA

CITY           SKY/WX    TMP DP  RH WIND       PRES   REMARKS
ATLANTIC *     SUNNY     79  61  53 E5        29.98R HX  80
AUDUBON *      SUNNY     79  57  47 N7        29.99S HX  80
CLARINDA *     SUNNY     79  68  69 CALM      29.99S HX  81
COUNCIL BLFS * SUNNY     75  64  69 SE6       29.98R
CRESTON *      SUNNY     77  61  57 CALM      29.99F
HARLAN  *      MOSUNNY   79  63  57 NE3       30.01S HX  80
LAMONI         PTSUNNY   79  62  56 CALM      29.98S HX  80
RED OAK *      SUNNY     77  64  65 E5        29.96F
SHENANDOAH *   SUNNY     79  66  65 E7        29.97R HX  81
$$

IAZ047>049-059>061-072>074-084-032000-
   CENTRAL IOWA

CITY           SKY/WX    TMP DP  RH WIND       PRES   REMARKS
AMES           SUNNY     79  54  41 NW3       29.96F
ANKENY *       SUNNY     79  55  44 N8        29.96R
CHARITON *     SUNNY     77  57  50 CALM      29.98R
DES MOINES     MOSUNNY   82  54  37 N8        29.95S HX  81
GRINNELL*      SUNNY     75  55  50 NW8       29.97S
KNOXVILLE *    SUNNY     77  57  50 NW5       29.95S
MARSHALLTOWN   SUNNY     77  54  44 NW7       29.95F
PELLA *        SUNNY     79  63  57 N3        29.97S HX  80
PERRY *          N/A     79  57  47 NW5       29.97S HX  80
$$

IAZ004>006-015-016-023>025-035-036-032000-
   NORTH CENTRAL IOWA

CITY           SKY/WX    TMP DP  RH WIND       PRES   REMARKS
ALGONA *       SUNNY     77  52  41 NW6       29.97F
CLARION *      SUNNY     77  54  44 NW8G16    29.97S
ESTHERVILLE    SUNNY     77  53  43 NW12      29.97F
FORT DODGE *   SUNNY     79  55  44 NW6       29.98S
MASON CITY     SUNNY     79  55  43 NW14      29.97F
FOREST CITY *  SUNNY     75  54  46 NW8       29.96F
IOWA FALLS *     N/A     77  50  38 NW3       29.97S
$$

IAZ007>011-017>019-026>030-037>042-050>054-066-032000-
   NORTHEAST IOWA

CITY           SKY/WX    TMP DP  RH WIND       PRES   REMARKS
CEDAR RAPIDS   SUNNY     77  58  51 NW9       29.93F
CHARLES CITY * SUNNY     75  55  50 W10G21    29.95S
CLINTON *      SUNNY     79  52  38 NW5       29.94S
DECORAH *      SUNNY     75  50  41 NW13G24   29.92F
DUBUQUE        SUNNY     78  53  41 W13       29.92F
MONTICELLO *   SUNNY     79  52  38 NW10G16   29.92F
OELWEIN *      SUNNY     77  55  47 W10G18    29.94F
WATERLOO       SUNNY     78  53  41 NW8G20    29.93F
$$

IAZ064-065-067-068-078-032000-
   EAST CENTRAL IOWA

CITY           SKY/WX    TMP DP  RH WIND       PRES   REMARKS
DAVENPORT      SUNNY     79  52  38 NW6       29.93F
IOWA CITY      SUNNY     80  53  39 NW8       29.94F HX  80
MT. PLEASANT * SUNNY     82  54  36 N7        29.95R HX  81
MUSCATINE *    SUNNY     81  54  39 VRB6G13   29.93F HX  80
QUAD CITIES    SUNNY     82  53  36 NW8       29.91F HX  81
$$

IAZ062-063-075>077-085>089-095>099-032000-
   SOUTHEAST IOWA

CITY           SKY/WX    TMP DP  RH WIND       PRES   REMARKS
BURLINGTON     SUNNY     81  59  47 VRB6      29.93S HX  81
FAIRFIELD *    SUNNY     77  57  50 NW5       29.96R
FORT MADISON * SUNNY     79  63  57 N5        29.95S HX  80
KEOKUK *       SUNNY     81  61  50 VRB5      29.94R HX  81
OSKALOOSA *      N/A     77  59  53 NW5       29.97S
CENTERVILLE *  SUNNY     75  59  57 CALM      30.00R
OTTUMWA        MOSUNNY   79  58  48 N5        29.94S HX  80
WASHINGTON *   SUNNY     79  57  47 NW7       29.96S HX  80
$$

ABBREVIATIONS USED IN REMARKS
   TC - TEMPERATURES IN CELSIUS
  WCI - WIND CHILL INDEX
   HX - HEAT INDEX
  VSB - VISIBILITY
$$




USA.gov is the U.S. government's official web portal to all federal, state and local government web resources and services.